When you browse on this site, cookies collect data to enhance your experience and personalize the content and advertising you see.
Visit our Privacy Policy to learn more. By continuing to use the site, you agree to this use of cookies and data.
  • In Hungary
  • List of Countries
  • For 7 days
  • Water Temperature
  • Weather Map
  • News
  • Weather Widgets
  • user-avatar
    Login

    Hourly Weather Winiary

    Today, 24 September, Tuesday

    Time Temperature Precipitation Wind Pressure Humidity
    00:00 +10°C° 0 mm 2 mps 740 mmHg 95%
    01:00 +9°C° 0 mm 2 mps 740 mmHg 95%
    02:00 +10°C° 0 mm 1 mps 740 mmHg 96%
    03:00 +10°C° 0 mm 1 mps 740 mmHg 96%
    04:00 +9°C° 0 mm 1 mps 739 mmHg 96%
    05:00 +10°C° 0 mm 1 mps 739 mmHg 94%
    06:00 +10°C° 0 mm 1 mps 740 mmHg 92%
    07:00 +11°C° 0 mm 1 mps 740 mmHg 90%
    08:00 +13°C° 0 mm 2 mps 740 mmHg 83%
    09:00 +15°C° 0 mm 2 mps 740 mmHg 76%
    10:00 +17°C° 0 mm 2 mps 740 mmHg 69%
    11:00 +18°C° 0 mm 2 mps 739 mmHg 64%
    12:00 +19°C° 0 mm 3 mps 739 mmHg 60%
    13:00 +20°C° 0 mm 3 mps 739 mmHg 55%
    14:00 +20°C° 0 mm 3 mps 738 mmHg 57%
    15:00 +20°C° 0 mm 3 mps 738 mmHg 60%
    16:00 +19°C° 0 mm 3 mps 738 mmHg 62%
    17:00 +17°C° 0 mm 3 mps 738 mmHg 70%
    18:00 +15°C° 0 mm 2 mps 738 mmHg 78%
    19:00 +14°C° 0 mm 2 mps 738 mmHg 86%
    20:00 +13°C° 0 mm 2 mps 738 mmHg 87%
    21:00 +13°C° 0 mm 2 mps 738 mmHg 88%
    22:00 +12°C° 0 mm 2 mps 738 mmHg 89%
    23:00 +12°C° 0 mm 1 mps 737 mmHg 88%

    Tomorrow, 25 September, Wednesday

    Time Temperature Precipitation Wind Pressure Humidity
    00:00 +12°C° 0 mm 1 mps 737 mmHg 87%
    01:00 +12°C° 0 mm 1 mps 737 mmHg 87%
    02:00 +12°C° 0 mm 1 mps 737 mmHg 86%
    03:00 +12°C° 0 mm 1 mps 736 mmHg 85%
    04:00 +13°C° 0 mm 1 mps 736 mmHg 84%
    05:00 +13°C° 0.2 mm 1 mps 736 mmHg 85%
    06:00 +14°C° 0.2 mm 1 mps 736 mmHg 86%
    07:00 +14°C° 0.2 mm 1 mps 736 mmHg 87%
    08:00 +15°C° 0.2 mm 1 mps 736 mmHg 86%
    09:00 +15°C° 0.2 mm 1 mps 736 mmHg 86%
    10:00 +16°C° 0.2 mm 1 mps 736 mmHg 86%
    11:00 +16°C° 0.2 mm 1 mps 736 mmHg 84%
    12:00 +18°C° 0.2 mm 1 mps 736 mmHg 82%
    13:00 +19°C° 0.2 mm 1 mps 736 mmHg 79%
    14:00 +18°C° 0.3 mm 1 mps 735 mmHg 81%
    15:00 +18°C° 0.3 mm 1 mps 735 mmHg 84%
    16:00 +16°C° 0.3 mm 1 mps 735 mmHg 86%
    17:00 +16°C° 0.2 mm 1 mps 735 mmHg 87%
    18:00 +16°C° 0.2 mm 1 mps 735 mmHg 88%
    19:00 +15°C° 0.2 mm 1 mps 735 mmHg 89%
    20:00 +15°C° 0.2 mm 1 mps 736 mmHg 89%
    21:00 +15°C° 0.2 mm 1 mps 736 mmHg 90%
    22:00 +15°C° 0.2 mm 2 mps 736 mmHg 90%
    23:00 +15°C° 0 mm 2 mps 736 mmHg 90%

    Day after tomorrow, 26 September, Thursday

    Time Temperature Precipitation Wind Pressure Humidity
    00:00 +15°C° 0 mm 2 mps 736 mmHg 89%
    01:00 +15°C° 0 mm 2 mps 736 mmHg 89%
    02:00 +15°C° 0 mm 2 mps 736 mmHg 89%
    03:00 +14°C° 0 mm 2 mps 736 mmHg 89%
    04:00 +14°C° 0 mm 2 mps 736 mmHg 89%
    05:00 +14°C° 0 mm 2 mps 737 mmHg 88%
    06:00 +14°C° 0 mm 2 mps 737 mmHg 88%
    07:00 +14°C° 0 mm 2 mps 737 mmHg 88%
    08:00 +15°C° 0 mm 2 mps 738 mmHg 83%
    09:00 +16°C° 0 mm 2 mps 738 mmHg 78%
    10:00 +18°C° 0 mm 2 mps 738 mmHg 73%
    11:00 +18°C° 0.3 mm 2 mps 738 mmHg 72%
    12:00 +18°C° 0.3 mm 2 mps 738 mmHg 71%
    13:00 +19°C° 0.3 mm 2 mps 738 mmHg 70%
    14:00 +18°C° 0.5 mm 2 mps 738 mmHg 71%
    15:00 +19°C° 0.5 mm 1 mps 738 mmHg 73%
    16:00 +19°C° 0.5 mm 1 mps 738 mmHg 75%
    17:00 +18°C° 0.1 mm 1 mps 739 mmHg 79%
    18:00 +15°C° 0.1 mm 1 mps 739 mmHg 82%
    19:00 +14°C° 0.1 mm 1 mps 739 mmHg 85%
    20:00 +14°C° 0 mm 1 mps 739 mmHg 86%
    21:00 +13°C° 0 mm 1 mps 740 mmHg 87%
    22:00 +13°C° 0 mm 1 mps 740 mmHg 87%
    23:00 +12°C° 0 mm 1 mps 740 mmHg 88%

    27 September, Friday

    Time Temperature Precipitation Wind Pressure Humidity
    00:00 +12°C° 0 mm 1 mps 740 mmHg 89%
    01:00 +12°C° 0 mm 1 mps 740 mmHg 90%
    02:00 +12°C° 0 mm 1 mps 741 mmHg 90%
    03:00 +12°C° 0 mm 1 mps 741 mmHg 90%
    04:00 +11°C° 0 mm 1 mps 741 mmHg 91%
    05:00 +12°C° 0 mm 1 mps 741 mmHg 89%
    06:00 +13°C° 0 mm 1 mps 741 mmHg 87%
    07:00 +13°C° 0 mm 1 mps 741 mmHg 85%
    08:00 +15°C° 0 mm 1 mps 741 mmHg 78%
    09:00 +18°C° 0 mm 1 mps 741 mmHg 71%
    10:00 +20°C° 0 mm 1 mps 741 mmHg 64%
    11:00 +21°C° 0 mm 1 mps 741 mmHg 60%
    12:00 +22°C° 0 mm 1 mps 741 mmHg 57%
    13:00 +23°C° 0 mm 2 mps 741 mmHg 53%
    14:00 +22°C° 0 mm 1 mps 740 mmHg 59%
    15:00 +21°C° 0 mm 1 mps 740 mmHg 65%
    16:00 +21°C° 0 mm 1 mps 740 mmHg 71%
    17:00 +19°C° 0 mm 1 mps 740 mmHg 75%
    18:00 +18°C° 0 mm 1 mps 740 mmHg 80%
    19:00 +16°C° 0 mm 1 mps 740 mmHg 85%
    20:00 +15°C° 0 mm 1 mps 740 mmHg 85%
    21:00 +15°C° 0 mm 1 mps 740 mmHg 86%
    22:00 +15°C° 0 mm 2 mps 740 mmHg 87%
    23:00 +14°C° 0 mm 2 mps 740 mmHg 87%

    28 September, Saturday

    Time Temperature Precipitation Wind Pressure Humidity
    00:00 +14°C° 0 mm 2 mps 740 mmHg 87%
    01:00 +14°C° 0 mm 2 mps 740 mmHg 87%
    02:00 +14°C° 0 mm 2 mps 740 mmHg 85%
    03:00 +15°C° 0 mm 2 mps 741 mmHg 83%
    04:00 +15°C° 0 mm 2 mps 741 mmHg 81%
    05:00 +15°C° 0 mm 2 mps 741 mmHg 81%
    06:00 +16°C° 0 mm 2 mps 741 mmHg 81%
    07:00 +16°C° 0 mm 1 mps 740 mmHg 80%
    08:00 +17°C° 0 mm 2 mps 741 mmHg 75%
    09:00 +19°C° 0 mm 3 mps 741 mmHg 69%
    10:00 +20°C° 0 mm 3 mps 741 mmHg 64%
    11:00 +20°C° 0.1 mm 4 mps 741 mmHg 62%
    12:00 +21°C° 0.1 mm 4 mps 741 mmHg 61%
    13:00 +21°C° 0.1 mm 5 mps 740 mmHg 60%
    14:00 +21°C° 0.1 mm 4 mps 740 mmHg 61%
    15:00 +20°C° 0.1 mm 4 mps 740 mmHg 63%
    16:00 +19°C° 0.1 mm 3 mps 740 mmHg 64%
    17:00 +18°C° 0 mm 3 mps 740 mmHg 68%
    18:00 +17°C° 0 mm 3 mps 740 mmHg 72%
    19:00 +16°C° 0 mm 3 mps 740 mmHg 76%
    20:00 +14°C° 0 mm 3 mps 740 mmHg 78%
    21:00 +14°C° 0 mm 3 mps 741 mmHg 80%
    22:00 +13°C° 0 mm 3 mps 741 mmHg 82%
    23:00 +13°C° 0 mm 3 mps 741 mmHg 83%

    29 September, Sunday

    Time Temperature Precipitation Wind Pressure Humidity
    00:00 +13°C° 0 mm 3 mps 741 mmHg 84%
    01:00 +13°C° 0 mm 3 mps 741 mmHg 85%
    02:00 +12°C° 0 mm 3 mps 740 mmHg 87%
    03:00 +13°C° 0 mm 2 mps 740 mmHg 89%
    04:00 +12°C° 0 mm 2 mps 740 mmHg 90%
    05:00 +12°C° 0 mm 2 mps 740 mmHg 87%
    06:00 +12°C° 0 mm 3 mps 740 mmHg 83%
    07:00 +12°C° 0 mm 3 mps 740 mmHg 79%
    08:00 +14°C° 0 mm 3 mps 740 mmHg 70%
    09:00 +15°C° 0 mm 4 mps 740 mmHg 62%
    10:00 +17°C° 0 mm 5 mps 740 mmHg 53%
    11:00 +17°C° 0 mm 5 mps 740 mmHg 52%
    12:00 +19°C° 0 mm 5 mps 740 mmHg 52%
    13:00 +20°C° 0 mm 5 mps 739 mmHg 51%
    14:00 +19°C° 0 mm 4 mps 739 mmHg 54%
    15:00 +19°C° 0 mm 3 mps 739 mmHg 58%
    16:00 +19°C° 0 mm 2 mps 738 mmHg 61%
    17:00 +17°C° 0 mm 2 mps 738 mmHg 66%
    18:00 +16°C° 0 mm 2 mps 738 mmHg 71%
    19:00 +15°C° 0 mm 1 mps 738 mmHg 76%
    20:00 +15°C° 0 mm 1 mps 738 mmHg 76%
    21:00 +15°C° 0 mm 2 mps 737 mmHg 76%
    22:00 +15°C° 0 mm 2 mps 737 mmHg 76%
    23:00 +14°C° 0 mm 2 mps 737 mmHg 76%
    Show more